SL-16 DEB, 24866

Orbit data source: Space-Track

SL-16 DEB, 24866 is space debris in LEO originally from a launch on Wed, 04 Sep 1996 UTC launched from the Tyuratam Missile And Space Complex (TTMTR). Debris objects in space refer to the collection of defunct objects orbiting the Earth. Examples of debris include non-operational satellites, rocket bodies, and fragments generated from explosions, collisions, or faulty payload assembly.

Loading next visibility...
Identifier
24866, 1996-051H
Orbit
LEO
Country
Flag of CISCIS
Related business
Manufacturer
Unknown
Mission
Spacecraft
Bus & Motor
Unknown
Mass
Unknown
Launch date (UTC)
1996-09-04 (29 years ago)
Launch vehicle
Unknown
Launch site
Tyuratam Missile And Space Complex (TTMTR)
Object type
Payload
Rocket body
Debris
Shape & HBR
Unknown
Radar Cross Section
Small (<0.1 m²)

Expand to show TLE details & history
Last TLE update: 23 hours ago

TLE from 23 hours ago
0 SL-16 DEB
1 24866U 96051H   25260.94922833 -.00000173  00000-0 -69367-4 0  9990
2 24866  71.1248 193.1514 0062337 331.5511  28.2212 14.10859200494155
Epoch: 2025-09-17T22:46Z
TLE epoch observation values (Epoch: 2025-09-17T22:46:53.327Z)
Latitude
0.00002°
Longitude
-145.68863°
Altitude
819.157 km
Speed
7.464 km/s
True Right ascension
12h 52m 36s
True Declination
0° 00' 00"
Sunlit
Object was in daylight at epoch
Visualization orbit readout
Latitude
Unknown
Longitude
Unknown
Altitude
Unknown
Speed
Unknown
Apparent Right ascension
Unknown
Apparent Declination
Unknown
Sunlit
N/A
Visualization observer readout
Local Sidereal Time
14:38:50
Azimuth
Unknown
Elevation
Unknown
Doppler factor
Unknown
Orbital elements
Apogee altitude
899.435 km
Perigee altitude
809.264 km
Semi-major axis
7,232.487 km
Eccentricity
0.00623
Inclination
71.1248°
RAAN
193.1514°
Arg. of periapsis
331.5511°
True anomaly
28.56132°
Mean anomaly
28.2212°
Eccentric anomaly
28.39103°
Mean motion
3.52868 °/min
Orbital period
102.02 mins
BSTAR
-0.000069367
Loading maneuver chart data...
Computing Atmospheric mass density...
Loading historical data...
Loading historical data...
Loading historical data...
Loading historical data...
Loading historical data...
Loading historical data...
Loading historical data...

Documentation

Showing up to 5 results
|